CREW DRAGON 9

Last updated on Tue Oct 08 2024 00:02:05 GMT+0000 (Coordinated Universal Time)

1 61447U 24178A 24281.53350623 .00033313 00000+0 60150-3 0 9995 2 61447 51.6369 118.9253 0008961 46.9406 313.2331 15.49376493475504
UTC large
Height (km)
Speed (km/s)
/
Latitude / Longitude
Inclination (degrees)
Orbital Period (minutes)
Azimuth
Elevation
Range (km)
Doppler Factor

Next 0 passes for location: London (51.5072 / 0.1276)

Sorry there are no passes over London.